Location: Bakov nad Jizerou
(50.4784°N, 14.9394°E)
Time: 06:55:24
(UTC+00:00)

Cosmos 1867 - Pass Details

Date: 16 June 2021
Orbit: 773 x 803 km, 65.0° (Epoch: 28 July)

Event Time Altitude Azimuth Distance (km) Brightness Sun altitude
Rises 21:40:24 0° 319° (NW) 3,322 8.2 -14.0°
Reaches altitude 10° 21:42:51 10° 319° (NW) 2,389 7.2 -14.1°
Maximum altitude 21:48:22 86° 231° (SW) 811 3.6 -14.4°
Enters shadow 21:52:13 20° 144° (SE) 1,768 4.8 -14.6°
